Greenville, SC

10:51 AM EST on February 14, 2016 (GMT -0500)
Greenville Downtown

Weather History for KGMU - June, 2012

Change the Weather History Date:

Monday, June 11, 2012

  Actual Average Record
Temperature  
Mean Temperature 72 °F -  
Max Temperature 80 °F 82 °F 97 °F (1993)
Min Temperature 64 °F 63 °F 62 °F (2002)
Cooling Degree Days 6    
Growing Degree Days 22 (Base 50)    
Moisture  
Dew Point 67 °F    
Average Humidity 88    
Maximum Humidity 100    
Minimum Humidity 65    
Precipitation  
Precipitation 0.38 in - - ()
Sea Level Pressure  
Sea Level Pressure 30.08 in    
Wind  
Wind Speed 4 mph (NE)    
Max Wind Speed 10 mph    
Max Gust Speed -    
Visibility 7 miles    
Events Fog , Rain    
Averages and records for this station are not official NWS values.
T = Trace of Precipitation, MM = Missing Value Source: NWS Daily Summary

Daily Weather History Graph

Daily Weather History Graph

Search for Another Location

Airport or City:

Trip Planner

Search our weather history database for the weather conditions in past years. The results will help you decide how hot, cold, wet, or windy it might be!

Date:

Astronomy

Jun. 11, 2012 Rise Set
Actual Time 6:15 AM EDT 8:43 PM EDT
Civil Twilight 5:45 AM EDT 9:12 PM EDT
Nautical Twilight 5:09 AM EDT 9:49 PM EDT
Astronomical Twilight 4:29 AM EDT 10:29 PM EDT
Moon 1:18 AM EDT (6/11) 1:46 PM EDT (6/11)
Length of Visible Light 15h 27m
Length of Day
14h 27m
Waning Gibbous, 48% of the Moon is Illuminated
Jun 11
Waning Gibbous
Jun 19
New
Jun 26
First Quarter
Jul 3
Full
Jul 10
Last Quarter

Hourly Weather History & Observations

Time (EDT) Temp. Dew Point Humidity Pressure Visibility Wind Dir Wind Speed Gust Speed Precip Events Conditions
12:53 AM 66.9 °F 63.0 °F 87% 30.13 in 10.0 mi Calm Calm - N/A   Overcast
1:53 AM 66.0 °F 63.0 °F 90% 30.10 in 10.0 mi NNE 3.5 mph - N/A   Overcast
2:53 AM 64.9 °F 63.0 °F 93% 30.09 in 9.0 mi North 6.9 mph - N/A   Overcast
3:18 AM 64.4 °F 64.4 °F 100% 30.10 in 2.5 mi NNE 5.8 mph - N/A   Overcast
3:36 AM 64.4 °F 64.4 °F 100% 30.10 in 3.0 mi North 4.6 mph - N/A   Overcast
3:53 AM 64.9 °F 64.0 °F 97% 30.09 in 6.0 mi NE 3.5 mph - N/A   Overcast
4:53 AM 64.9 °F 64.0 °F 97% 30.09 in 4.0 mi Calm Calm - N/A   Overcast
5:53 AM 64.9 °F 64.0 °F 97% 30.09 in 4.0 mi NNE 5.8 mph - N/A   Overcast
6:53 AM 66.0 °F 64.0 °F 93% 30.12 in 6.0 mi NNW 4.6 mph - 0.00 in   Overcast
7:15 AM 66.2 °F 64.4 °F 94% 30.13 in 2.0 mi NNE 4.6 mph - N/A   Overcast
7:27 AM 66.2 °F 64.4 °F 94% 30.13 in 3.0 mi NNE 4.6 mph - 0.00 in Rain Light Rain
7:43 AM 66.2 °F 64.4 °F 94% 30.14 in 2.5 mi Calm Calm - 0.00 in Rain Light Rain
7:50 AM 66.2 °F 64.4 °F 94% 30.14 in 3.0 mi Calm Calm - 0.00 in   Overcast
7:53 AM 66.0 °F 64.9 °F 96% 30.12 in 3.0 mi ENE 3.5 mph - 0.00 in   Overcast
8:01 AM 66.2 °F 64.4 °F 94% 30.14 in 4.0 mi Calm Calm - 0.00 in Rain Light Rain
8:10 AM 66.2 °F 64.4 °F 94% 30.14 in 4.0 mi Calm Calm - 0.00 in Rain Light Rain
8:21 AM 66.2 °F 64.4 °F 94% 30.13 in 1.8 mi NE 4.6 mph - 0.03 in Rain Rain
8:36 AM 66.2 °F 64.4 °F 94% 30.13 in 3.0 mi ENE 3.5 mph - 0.06 in Rain Light Rain
8:48 AM 66.2 °F 64.4 °F 94% 30.14 in 6.0 mi Calm Calm - 0.06 in Rain Light Rain
9:04 AM 66.2 °F 64.4 °F 94% 30.13 in 1.8 mi ENE 5.8 mph - 0.04 in Rain Rain
9:16 AM 66.2 °F 64.4 °F 94% 30.13 in 3.0 mi ENE 3.5 mph - 0.07 in Rain Light Rain
9:25 AM 68.0 °F 66.2 °F 94% 30.13 in 6.0 mi ENE 4.6 mph - 0.07 in Rain Light Rain
9:51 AM 68.0 °F 66.2 °F 94% 30.13 in 9.0 mi NE 5.8 mph - 0.08 in   Overcast
9:53 AM 68.0 °F 66.0 °F 93% 30.11 in 8.0 mi NE 6.9 mph - 0.08 in   Overcast
10:01 AM 68.0 °F 66.2 °F 94% 30.12 in 6.0 mi NE 5.8 mph - N/A   Overcast
10:07 AM 68.0 °F 66.2 °F 94% 30.12 in 1.8 mi NE 5.8 mph - 0.04 in Rain Rain
10:17 AM 68.0 °F 66.2 °F 94% 30.12 in 3.0 mi NE 6.9 mph - 0.05 in Rain Light Rain
10:29 AM 68.0 °F 66.2 °F 94% 30.12 in 5.0 mi ENE 5.8 mph - 0.07 in Rain Rain
10:44 AM 68.0 °F 66.2 °F 94% 30.12 in 2.5 mi NE 6.9 mph - 0.11 in Rain Rain
10:53 AM 69.1 °F 66.9 °F 93% 30.09 in 7.0 mi NE 6.9 mph - 0.11 in Rain Light Rain
11:03 AM 69.8 °F 66.2 °F 88% 30.11 in 10.0 mi ENE 5.8 mph - 0.00 in Rain Light Rain
11:23 AM 69.8 °F 66.2 °F 88% 30.12 in 1.5 mi WNW 8.1 mph - 0.05 in Rain Heavy Rain
11:32 AM 69.8 °F 66.2 °F 88% 30.12 in 0.5 mi NNW 4.6 mph - 0.17 in Fog , Rain Heavy Rain
11:40 AM 69.8 °F 66.2 °F 88% 30.11 in 2.0 mi North 5.8 mph - 0.18 in Rain Rain
11:48 AM 69.8 °F 68.0 °F 94% 30.11 in 6.0 mi NE 4.6 mph - 0.19 in Rain Light Rain
11:53 AM 70.0 °F 68.0 °F 93% 30.09 in 9.0 mi NE 3.5 mph - 0.19 in Rain Light Rain
12:00 PM 69.8 °F 68.0 °F 94% 30.11 in 10.0 mi North 4.6 mph - 0.00 in Rain Light Rain
12:08 PM 71.6 °F 68.0 °F 88% 30.11 in 10.0 mi North 4.6 mph - 0.00 in Rain Light Rain
12:36 PM 71.6 °F 68.0 °F 88% 30.11 in 10.0 mi NNW 4.6 mph - 0.00 in Rain Light Rain
12:53 PM 72.0 °F 68.0 °F 87% 30.09 in 10.0 mi Calm Calm - 0.00 in   Overcast
1:08 PM 71.6 °F 68.0 °F 88% 30.10 in 10.0 mi Calm Calm - N/A   Overcast
1:53 PM 73.9 °F 68.0 °F 82% 30.06 in 10.0 mi Variable 3.5 mph - N/A   Overcast
2:53 PM 73.9 °F 69.1 °F 85% 30.05 in 8.0 mi SW 5.8 mph - 0.00 in Rain Light Rain
3:12 PM 73.4 °F 68.0 °F 83% 30.06 in 10.0 mi SW 4.6 mph - 0.00 in   Overcast
3:50 PM 75.2 °F 68.0 °F 78% 30.06 in 10.0 mi SW 9.2 mph - 0.00 in   Overcast
3:53 PM 75.9 °F 68.0 °F 76% 30.03 in 10.0 mi SW 6.9 mph - 0.00 in   Overcast
4:09 PM 77.0 °F 68.0 °F 74% 30.05 in 10.0 mi SSW 5.8 mph - N/A   Overcast
4:32 PM 77.0 °F 68.0 °F 74% 30.04 in 10.0 mi West 6.9 mph - N/A   Mostly Cloudy
4:39 PM 78.8 °F 69.8 °F 74% 30.04 in 10.0 mi SSW 4.6 mph - N/A   Mostly Cloudy
4:53 PM 78.1 °F 69.1 °F 74% 30.02 in 10.0 mi Variable 5.8 mph - N/A   Mostly Cloudy
5:01 PM 78.8 °F 68.0 °F 69% 30.04 in 10.0 mi SSW 8.1 mph - N/A   Overcast
5:08 PM 78.8 °F 66.2 °F 65% 30.04 in 10.0 mi SW 5.8 mph - N/A   Overcast
5:53 PM 79.0 °F 69.1 °F 72% 30.01 in 10.0 mi Variable 3.5 mph - N/A   Mostly Cloudy
6:53 PM 79.0 °F 68.0 °F 69% 29.99 in 10.0 mi SW 6.9 mph - N/A   Overcast
7:04 PM 78.8 °F 69.8 °F 74% 30.02 in 10.0 mi SSW 8.1 mph - N/A   Overcast
7:21 PM 78.8 °F 68.0 °F 69% 30.03 in 10.0 mi South 6.9 mph - N/A   Mostly Cloudy
7:28 PM 77.0 °F 69.8 °F 78% 30.03 in 10.0 mi South 10.4 mph - N/A   Mostly Cloudy
7:53 PM 77.0 °F 69.1 °F 76% 30.01 in 10.0 mi South 6.9 mph - N/A   Overcast
8:53 PM 75.0 °F 69.1 °F 82% 30.01 in 10.0 mi South 5.8 mph - N/A   Scattered Clouds
9:53 PM 73.9 °F 70.0 °F 87% 30.01 in 10.0 mi South 5.8 mph - N/A   Partly Cloudy
10:05 PM 73.4 °F 69.8 °F 88% 30.04 in 10.0 mi South 6.9 mph - N/A   Scattered Clouds
10:13 PM 73.4 °F 71.6 °F 94% 30.05 in 10.0 mi South 5.8 mph - N/A   Mostly Cloudy
10:35 PM 73.4 °F 71.6 °F 94% 30.04 in 8.0 mi South 8.1 mph - 0.00 in Rain Light Rain
10:44 PM 73.4 °F 71.6 °F 94% 30.04 in 10.0 mi South 8.1 mph - 0.00 in   Overcast
10:53 PM 73.0 °F 71.1 °F 93% 30.02 in 10.0 mi South 8.1 mph - 0.00 in   Overcast
11:53 PM 73.0 °F 71.1 °F 93% 30.01 in 10.0 mi South 9.2 mph - N/A   Overcast